IW5EFR Vecchia di Pontedera IT current weather conditions

sailwx.info

Wind from 150 at 6 knots gusting 6

Air temperature 17.8° C
Dewpoint 13.9° C

Last reported at 2017-Apr-26 19:05 UTC.
Time now 2017-Apr-26 19:42 UTC

Location: N 43°37' E 010°38'.
View on Google Maps.

See reports from other nearby stations

  
Tides and Currents Weather Stations Pressure Air Temp Water Temp Dewpoint Dewpoint Depression Visibility Wind Speed Wind Dir Waves Ship Positions
date/time (UTC)wind fromknots sea level pressurealtimeterstation pressurevisibilityair tempwater tempwave heightnotes
2017-Apr-26 19:05 150 6 gusting 6 17.8
2017-Apr-26 19:00 183 2 gusting 6 17.8
2017-Apr-26 18:55 185 2 gusting 6 17.8
2017-Apr-26 18:50 179 5 gusting 4 17.8
2017-Apr-26 18:45 173 4 gusting 4 17.8
2017-Apr-26 18:40 199 17.8
2017-Apr-26 18:35 199 3 gusting 6 17.8
2017-Apr-26 18:30 185 1 gusting 7 17.8
2017-Apr-26 18:25 178 0 gusting 7 17.8
2017-Apr-26 18:20 190 2 gusting 6 17.2
2017-Apr-26 18:15 167 6 gusting 6 17.2
2017-Apr-26 18:10 190 0 17.2
2017-Apr-26 18:05 234 2 17.2
2017-Apr-26 18:00 253 17.8
2017-Apr-26 17:55 253 17.8
2017-Apr-26 17:50 253 17.8
2017-Apr-26 17:45 253 17.8
2017-Apr-26 17:40 253 17.8
2017-Apr-26 17:35 253 0 gusting 6 17.8
2017-Apr-26 17:30 252 17.8
2017-Apr-26 17:25 257 1 gusting 6 17.8
2017-Apr-26 17:20 198 0 gusting 7 17.8
2017-Apr-26 17:15 195 2 gusting 7 18.3
2017-Apr-26 17:10 210 3 gusting 6 18.3
2017-Apr-26 17:00 216 1 gusting 8 18.3
2017-Apr-26 16:55 217 0 gusting 8 18.3
2017-Apr-26 16:50 261 3 gusting 7 18.3
2017-Apr-26 16:45 220 4 gusting 7 18.3
2017-Apr-26 16:40 208 1 gusting 7 18.3
2017-Apr-26 16:35 212 3 gusting 7 18.3
2017-Apr-26 16:30 234 3 gusting 8 18.9
2017-Apr-26 16:25 230 1 gusting 8 18.9
2017-Apr-26 16:20 219 4 gusting 10 18.9
2017-Apr-26 16:15 239 2 gusting 10 18.9
2017-Apr-26 16:10 229 3 gusting 7 18.9
2017-Apr-26 16:05 227 5 gusting 7 18.9
2017-Apr-26 16:00 193 0 gusting 11 18.9
2017-Apr-26 15:55 207 1 gusting 11 18.9
2017-Apr-26 15:50 279 2 gusting 6 18.9
2017-Apr-26 15:45 217 5 gusting 6 18.9
2017-Apr-26 15:40 205 0 gusting 10 18.9
2017-Apr-26 15:35 194 4 gusting 10 18.9
2017-Apr-26 15:30 185 6 gusting 14 18.9
2017-Apr-26 15:25 209 6 gusting 14 18.9
2017-Apr-26 15:20 165 2 gusting 15 18.9
2017-Apr-26 15:15 183 4 gusting 15 18.9
2017-Apr-26 15:10 159 8 gusting 16 18.9
2017-Apr-26 15:05 166 5 gusting 16 18.9
2017-Apr-26 15:00 168 8 gusting 13 18.9
2017-Apr-26 14:55 166 6 gusting 13 18.9
2017-Apr-26 14:50 163 6 gusting 11 18.9
2017-Apr-26 14:45 180 2 gusting 11 18.9
2017-Apr-26 14:40 163 7 gusting 10 18.9
2017-Apr-26 14:35 190 6 gusting 10 18.9
2017-Apr-26 14:30 184 2 gusting 10 18.3
2017-Apr-26 14:25 188 4 gusting 10 18.3
2017-Apr-26 14:20 191 5 gusting 12 18.3
2017-Apr-26 14:15 180 6 gusting 12 18.3
2017-Apr-26 14:10 158 6 gusting 9 18.3
2017-Apr-26 14:05 228 1 gusting 9 18.3
2017-Apr-26 14:00 207 3 gusting 12 18.9
2017-Apr-26 13:55 225 6 gusting 12 18.9
2017-Apr-26 13:50 228 2 gusting 10 18.9
2017-Apr-26 13:45 213 2 gusting 10 19.4
2017-Apr-26 13:40 207 2 gusting 12 19.4
2017-Apr-26 13:35 221 6 gusting 12 19.4
2017-Apr-26 13:30 225 1 gusting 13 19.4
2017-Apr-26 13:25 225 6 gusting 13 19.4
2017-Apr-26 13:20 170 1 gusting 11 19.4
2017-Apr-26 13:15 250 2 gusting 11 19.4
2017-Apr-26 13:10 229 5 gusting 13 19.4
2017-Apr-26 13:05 243 2 gusting 13 19.4
2017-Apr-26 13:00 169 7 gusting 14 19.4
2017-Apr-26 12:55 183 3 gusting 14 19.4
2017-Apr-26 12:50 188 3 gusting 16 19.4
2017-Apr-26 12:45 185 3 gusting 16 19.4
2017-Apr-26 12:40 205 4 gusting 14 19.4
2017-Apr-26 12:35 235 5 gusting 14 19.4
2017-Apr-26 12:30 189 3 gusting 13 19.4
2017-Apr-26 12:25 215 4 gusting 13 18.9
2017-Apr-26 12:20 180 5 gusting 11 18.9
2017-Apr-26 12:15 181 3 gusting 11 18.9
2017-Apr-26 12:10 219 7 gusting 8 18.9
2017-Apr-26 12:05 173 3 gusting 8 18.3
2017-Apr-26 12:00 201 2 gusting 9 18.3
2017-Apr-26 11:55 207 3 gusting 9 18.3
2017-Apr-26 11:50 182 4 gusting 13 18.3
2017-Apr-26 11:45 175 1 gusting 13 18.3
2017-Apr-26 11:40 180 6 gusting 15 18.3
2017-Apr-26 11:35 178 9 gusting 15 18.3
2017-Apr-26 11:30 185 6 gusting 12 18.3
2017-Apr-26 11:25 216 5 gusting 12 18.3
2017-Apr-26 11:20 188 2 gusting 15 18.9
2017-Apr-26 11:15 257 8 gusting 15 18.9
2017-Apr-26 11:10 188 1 gusting 13 18.9
2017-Apr-26 11:05 184 5 gusting 13 18.9
2017-Apr-26 11:00 194 4 gusting 13 18.9
2017-Apr-26 10:55 205 4 gusting 13 18.9
2017-Apr-26 10:50 206 3 gusting 16 18.9
2017-Apr-26 10:45 218 5 gusting 16 18.9
2017-Apr-26 10:40 234 6 gusting 18 18.9
2017-Apr-26 10:35 227 1 gusting 18 18.9
2017-Apr-26 10:30 169 14 gusting 15 18.9
2017-Apr-26 10:25 173 9 gusting 15 19.4
2017-Apr-26 10:20 214 7 gusting 16 19.4
2017-Apr-26 10:15 175 5 gusting 16 19.4
2017-Apr-26 10:10 172 6 gusting 14 18.9
2017-Apr-26 10:05 176 6 gusting 14 18.9
2017-Apr-26 10:00 201 0 gusting 18 18.9
2017-Apr-26 09:55 169 10 gusting 18 18.9
2017-Apr-26 09:50 188 4 gusting 13 18.9
2017-Apr-26 09:45 200 6 gusting 13 18.9
2017-Apr-26 09:40 176 6 gusting 13 18.9
2017-Apr-26 09:35 180 6 gusting 13 18.3
2017-Apr-26 09:30 188 1 gusting 13 18.3
2017-Apr-26 09:25 191 5 gusting 13 18.3
2017-Apr-26 09:20 193 6 gusting 9 18.3
2017-Apr-26 09:15 190 4 gusting 9 18.3
2017-Apr-26 09:10 192 1 gusting 13 18.3
2017-Apr-26 09:05 168 4 gusting 13 17.8
2017-Apr-26 09:00 184 3 gusting 8 17.8
2017-Apr-26 08:55 149 8 gusting 8 17.8
2017-Apr-26 08:50 182 2 gusting 15 17.2
2017-Apr-26 08:45 182 4 gusting 15 17.2
2017-Apr-26 08:40 170 3 gusting 13 17.2
2017-Apr-26 08:35 155 14 gusting 13 17.2
2017-Apr-26 08:30 217 5 gusting 11 16.7
2017-Apr-26 08:25 175 3 gusting 11 16.7
2017-Apr-26 08:20 141 10 gusting 14 16.7
2017-Apr-26 08:15 161 5 gusting 14 16.7
2017-Apr-26 08:10 165 9 gusting 13 16.7
2017-Apr-26 08:05 195 3 gusting 13 16.7
2017-Apr-26 08:00 155 4 gusting 17 16.7
2017-Apr-26 07:55 203 5 gusting 17 16.7
2017-Apr-26 07:50 155 9 gusting 14 16.7
2017-Apr-26 07:45 146 7 gusting 14 16.7
2017-Apr-26 07:40 159 7 gusting 19 16.7
2017-Apr-26 07:35 159 9 gusting 19 16.7
2017-Apr-26 07:30 168 3 gusting 13 16.7
2017-Apr-26 07:25 184 1 gusting 13 16.7
2017-Apr-26 07:20 192 5 gusting 13 16.7
2017-Apr-26 07:15 206 5 gusting 13 16.7
2017-Apr-26 07:10 163 6 gusting 8 16.1
2017-Apr-26 07:05 143 12 gusting 8 16.1
2017-Apr-26 07:00 165 5 gusting 13 16.1
2017-Apr-26 06:55 146 6 gusting 13 16.1
2017-Apr-26 06:50 138 6 gusting 10 16.1
2017-Apr-26 06:45 155 9 gusting 10 16.1
2017-Apr-26 06:40 138 4 gusting 12 16.1
2017-Apr-26 06:35 184 2 gusting 12 16.1
2017-Apr-26 06:30 121 7 gusting 13 16.1
2017-Apr-26 06:25 163 4 gusting 13 16.1
2017-Apr-26 06:20 176 4 gusting 10 16.1
2017-Apr-26 06:15 190 3 gusting 10 15.6
2017-Apr-26 06:10 189 0 gusting 10 15.6
2017-Apr-26 06:05 163 6 gusting 10 15.6
2017-Apr-26 06:00 154 2 gusting 12 15.6
2017-Apr-26 05:55 168 1 gusting 12 15.6
2017-Apr-26 05:50 192 6 gusting 10 15.6
2017-Apr-26 05:45 172 3 gusting 10 15.6
2017-Apr-26 05:40 179 5 gusting 9 15.6
2017-Apr-26 05:35 183 3 gusting 9 15.6
2017-Apr-26 05:30 155 6 gusting 13 15.6
2017-Apr-26 05:25 192 4 gusting 13 15.6
2017-Apr-26 05:20 163 9 gusting 15 15.6
2017-Apr-26 05:15 170 4 gusting 15 15.6
2017-Apr-26 05:10 157 7 gusting 13 15.6
2017-Apr-26 05:05 170 6 gusting 13 15.6
2017-Apr-26 05:00 176 3 gusting 9 15.6
2017-Apr-26 04:55 157 9 gusting 9 15.6
2017-Apr-26 04:50 187 4 gusting 6 15.6
2017-Apr-26 04:45 164 7 gusting 6 15.6
2017-Apr-26 04:40 190 3 gusting 5 15.6
2017-Apr-26 04:35 200 3 gusting 5 15.6
2017-Apr-26 04:30 159 15.6
2017-Apr-26 04:25 159 15.6
2017-Apr-26 04:20 180 2 gusting 6 15.6
2017-Apr-26 04:15 180 3 gusting 6 15.6
2017-Apr-26 04:10 192 3 gusting 5 15.6
2017-Apr-26 04:05 184 1 gusting 5 15.6
2017-Apr-26 04:00 172 15.6
2017-Apr-26 03:55 172 1 gusting 10 15.6
2017-Apr-26 03:50 188 2 gusting 14 15.6
2017-Apr-26 03:45 175 6 gusting 14 15.6
2017-Apr-26 03:40 179 5 gusting 6 15.6
2017-Apr-26 03:35 172 5 gusting 6 15.0
2017-Apr-26 03:30 173 4 15.0
2017-Apr-26 03:25 130 14.4
2017-Apr-26 03:20 130 14.4
2017-Apr-26 03:15 130 14.4
2017-Apr-26 03:10 130 14.4
2017-Apr-26 03:05 130 1 gusting 6 14.4
2017-Apr-26 03:00 126 0 gusting 6 14.4
2017-Apr-26 02:55 127 1 gusting 6 14.4
2017-Apr-26 02:50 126 2 gusting 5 14.4
2017-Apr-26 02:45 128 3 gusting 5 14.4
2017-Apr-26 02:40 135 14.4
2017-Apr-26 02:35 135 14.4
2017-Apr-26 02:30 130 2 gusting 4 14.4
2017-Apr-26 02:25 130 2 gusting 4 14.4
2017-Apr-26 02:20 124 4 gusting 4 14.4
2017-Apr-26 02:15 126 2 gusting 4 13.9
2017-Apr-26 02:10 124 0 13.9
2017-Apr-26 02:05 124 13.9
2017-Apr-26 02:00 124 13.9
2017-Apr-26 01:55 123 13.9
2017-Apr-26 01:50 124 1 gusting 1 13.9
2017-Apr-26 01:45 124 13.9
2017-Apr-26 01:40 124 0 13.9
2017-Apr-26 01:35 123 13.9
2017-Apr-26 01:30 124 13.9
2017-Apr-26 01:25 124 13.9
2017-Apr-26 01:20 123 13.9
2017-Apr-26 01:15 124 13.9
2017-Apr-26 01:10 124 13.9
2017-Apr-26 01:05 124 13.9
2017-Apr-26 01:00 124 0 gusting 2 13.9
2017-Apr-26 00:55 124 13.9
2017-Apr-26 00:50 124 0 gusting 2 13.9
2017-Apr-26 00:45 124 1 gusting 2 13.9
2017-Apr-26 00:40 124 13.9
2017-Apr-26 00:35 124 1 gusting 3 13.9
2017-Apr-26 00:30 124 2 gusting 3 13.9
2017-Apr-26 00:25 124 13.9
2017-Apr-26 00:20 124 1 gusting 1 13.9
2017-Apr-26 00:15 124 13.9
2017-Apr-26 00:10 124 14.4
2017-Apr-26 00:05 124 14.4
2017-Apr-26 00:00 124 14.4
2017-Apr-25 23:55 124 14.4
2017-Apr-25 23:50 124 14.4
2017-Apr-25 23:45 124 15.0
2017-Apr-25 23:40 124 0 gusting 3 15.0
2017-Apr-25 23:35 124 0 gusting 3 15.0
2017-Apr-25 23:30 124 0 gusting 3 15.0
2017-Apr-25 23:25 124 0 gusting 3 15.0
2017-Apr-25 23:20 124 15.0
2017-Apr-25 23:15 124 1 gusting 4 15.0
2017-Apr-25 23:10 124 15.0
2017-Apr-25 23:05 124 1 gusting 4 15.0
2017-Apr-25 23:00 124 1 gusting 6 15.0
2017-Apr-25 22:55 124 2 gusting 6 15.0
2017-Apr-25 22:50 125 2 gusting 6 15.0
2017-Apr-25 22:45 128 4 gusting 6 15.0
2017-Apr-25 22:40 128 3 gusting 6 15.0
2017-Apr-25 22:35 136 2 gusting 6 15.0
2017-Apr-25 22:30 125 4 gusting 8 15.0
2017-Apr-25 22:25 117 4 gusting 8 14.4
2017-Apr-25 22:20 122 6 gusting 6 14.4
2017-Apr-25 22:15 113 3 gusting 6 14.4
2017-Apr-25 22:10 109 2 gusting 6 14.4
2017-Apr-25 22:05 107 3 gusting 6 14.4
2017-Apr-25 22:00 109 14.4
2017-Apr-25 21:55 109 2 gusting 6 14.4
2017-Apr-25 21:50 108 2 gusting 6 14.4
2017-Apr-25 21:45 100 5 gusting 6 14.4
2017-Apr-25 21:40 111 3 gusting 4 14.4
2017-Apr-25 21:35 148 3 gusting 4 13.9
2017-Apr-25 21:30 153 2 gusting 4 13.9
2017-Apr-25 21:25 155 2 gusting 4 13.9
2017-Apr-25 21:20 155 1 gusting 4 13.9
2017-Apr-25 21:15 155 0 gusting 4 13.9
2017-Apr-25 21:10 163 3 gusting 3 13.9
2017-Apr-25 21:05 166 1 gusting 3 13.9
2017-Apr-25 21:00 167 13.9
2017-Apr-25 20:55 167 1 gusting 4 13.9
2017-Apr-25 20:50 167 3 gusting 3 13.9
2017-Apr-25 20:45 168 2 gusting 3 13.9
2017-Apr-25 20:40 172 0 gusting 4 13.9
2017-Apr-25 20:35 173 2 gusting 4 13.9
2017-Apr-25 20:30 173 2 gusting 3 13.9
2017-Apr-25 20:25 177 2 gusting 3 13.9
2017-Apr-25 20:20 178 1 13.9
2017-Apr-25 20:15 178 0 13.9
2017-Apr-25 20:10 178 13.9
2017-Apr-25 20:05 178 14.4
2017-Apr-25 20:00 178 14.4
2017-Apr-25 19:55 178 14.4
2017-Apr-25 19:50 178 0 gusting 1 14.4
2017-Apr-25 19:45 182 1 gusting 1 15.0
2017-Apr-25 19:40 183 15.0
2017-Apr-25 19:35 183 15.0
2017-Apr-25 19:30 183 15.0
2017-Apr-25 19:25 183 15.0
2017-Apr-25 19:20 183 15.0
2017-Apr-25 19:15 183 15.0
2017-Apr-25 19:10 181 15.0
2017-Apr-25 19:05 191 15.6
2017-Apr-25 19:02 191 15.6
2017-Apr-25 18:58 191 15.6
2017-Apr-25 18:53 191 15.6
2017-Apr-25 18:48 191 15.6
2017-Apr-25 18:43 191 16.1
2017-Apr-25 18:38 191 16.1
2017-Apr-25 18:33 188 16.1
2017-Apr-25 18:28 188 16.1
2017-Apr-25 18:23 188 0 gusting 5 16.1
2017-Apr-25 18:18 188 0 gusting 5 16.1
2017-Apr-25 18:13 188 3 gusting 6 16.7
2017-Apr-25 18:08 182 0 gusting 6 16.7
2017-Apr-25 18:03 197 2 gusting 6 16.7
2017-Apr-25 17:58 161 5 gusting 6 16.7
2017-Apr-25 17:53 196 3 gusting 7 16.7
2017-Apr-25 17:48 180 3 gusting 7 16.7
2017-Apr-25 17:43 195 2 gusting 8 17.2
2017-Apr-25 17:38 184 3 gusting 8 17.2
2017-Apr-25 17:33 187 0 gusting 11 17.2
2017-Apr-25 17:28 173 4 gusting 11 17.8
2017-Apr-25 17:23 207 4 gusting 8 17.8
2017-Apr-25 17:18 190 0 gusting 8 17.8
2017-Apr-25 17:13 186 3 gusting 12 18.3
2017-Apr-25 17:08 239 3 gusting 12 18.3
2017-Apr-25 17:03 156 8 gusting 7 18.3
2017-Apr-25 16:58 174 4 gusting 7 18.9
2017-Apr-25 16:53 202 2 gusting 7 18.9
2017-Apr-25 16:48 235 3 gusting 7 18.9
2017-Apr-25 16:43 211 3 gusting 7 18.9
2017-Apr-25 16:38 234 0 gusting 7 18.9
2017-Apr-25 16:33 215 2 gusting 7 19.4
2017-Apr-25 16:28 232 1 gusting 7 19.4
2017-Apr-25 16:23 254 6 gusting 10 19.4
2017-Apr-25 16:18 236 4 gusting 10 19.4
2017-Apr-25 16:13 250 1 gusting 6 19.4
2017-Apr-25 16:08 183 4 gusting 6 20.0
2017-Apr-25 16:03 217 4 gusting 8 20.0
2017-Apr-25 15:58 206 0 gusting 8 20.0
2017-Apr-25 15:53 220 3 gusting 9 20.0
2017-Apr-25 15:48 268 1 gusting 9 20.0
2017-Apr-25 15:43 234 2 gusting 13 20.0
2017-Apr-25 15:38 225 2 gusting 13 20.0
2017-Apr-25 15:33 255 2 gusting 11 20.0
2017-Apr-25 15:27 223 3 gusting 11 20.0
2017-Apr-25 15:22 248 2 gusting 11 20.0
2017-Apr-25 15:17 194 4 gusting 11 20.0
2017-Apr-25 15:12 199 6 gusting 15 20.0
2017-Apr-25 15:07 295 1 gusting 15 20.0
2017-Apr-25 15:02 249 5 gusting 11 20.0
2017-Apr-25 14:57 241 0 gusting 11 20.6
2017-Apr-25 14:52 196 2 gusting 10 20.6
2017-Apr-25 14:47 249 4 gusting 10 20.6
2017-Apr-25 14:42 176 6 gusting 9 20.6
2017-Apr-25 14:37 110 6 gusting 9 20.6
2017-Apr-25 14:32 275 5 gusting 7 20.6
2017-Apr-25 14:27 217 4 gusting 7 20.6
2017-Apr-25 14:22 234 0 gusting 8 21.1
2017-Apr-25 14:17 240 3 gusting 8 21.1
2017-Apr-25 14:12 193 4 gusting 9 21.1
2017-Apr-25 14:07 171 4 gusting 9 21.1
2017-Apr-25 14:02 229 3 gusting 11 21.1
2017-Apr-25 13:57 213 2 gusting 11 20.6
2017-Apr-25 13:52 221 3 gusting 7 20.6
2017-Apr-25 13:47 213 4 gusting 7 20.6
2017-Apr-25 13:42 254 6 gusting 12 21.1
2017-Apr-25 13:37 188 1 gusting 12 20.6
2017-Apr-25 13:32 204 2 gusting 13 20.6
2017-Apr-25 13:27 250 5 gusting 13 20.6
2017-Apr-25 13:22 233 0 gusting 11 20.6
2017-Apr-25 13:17 202 3 gusting 11 20.6
2017-Apr-25 13:12 242 2 gusting 9 20.6
2017-Apr-25 13:07 187 3 gusting 9 20.6
2017-Apr-25 13:02 225 1 gusting 9 20.6
2017-Apr-25 12:57 236 1 gusting 9 20.6
2017-Apr-25 12:52 257 1 gusting 13 20.0
2017-Apr-25 12:47 167 6 gusting 13 20.0
2017-Apr-25 12:42 220 1 gusting 13 20.0
2017-Apr-25 12:37 232 1 gusting 13 19.4
2017-Apr-25 12:32 267 6 gusting 9 19.4
2017-Apr-25 12:27 255 6 gusting 9 20.0
2017-Apr-25 12:22 207 4 gusting 6 20.0
2017-Apr-25 12:17 247 0 gusting 6 19.4
2017-Apr-25 12:12 209 1 gusting 6 19.4
2017-Apr-25 12:07 234 1 gusting 6 19.4
2017-Apr-25 12:02 234 1 gusting 6 19.4
2017-Apr-25 11:57 229 3 gusting 6 19.4
2017-Apr-25 11:52 229 4 gusting 6 18.9
2017-Apr-25 11:47 220 4 gusting 6 18.9
2017-Apr-25 11:42 140 3 gusting 8 18.9
2017-Apr-25 11:37 155 5 gusting 8 18.3
2017-Apr-25 11:32 253 0 gusting 5 18.3
2017-Apr-25 11:27 257 1 gusting 5 18.3
2017-Apr-25 11:22 271 18.3
2017-Apr-25 11:17 156 0 gusting 4 18.3
2017-Apr-25 11:12 156 1 gusting 6 18.3
2017-Apr-25 11:07 156 18.3
2017-Apr-25 11:02 156 17.8
2017-Apr-25 10:57 157 5 gusting 6 18.3
2017-Apr-25 10:52 166 3 gusting 4 18.3
2017-Apr-25 10:47 165 1 gusting 4 18.3
2017-Apr-25 10:42 238 18.3
2017-Apr-25 10:37 238 1 gusting 6 17.8
2017-Apr-25 10:32 173 17.8
2017-Apr-25 10:27 173 1 gusting 4 17.8
2017-Apr-25 10:22 174 0 gusting 4 17.8
2017-Apr-25 10:17 175 4 gusting 4 17.8
2017-Apr-25 10:12 178 17.8
2017-Apr-25 10:07 178 1 gusting 3 17.8
2017-Apr-25 10:02 178 3 gusting 6 17.8
2017-Apr-25 09:57 178 0 gusting 6 17.8
2017-Apr-25 09:52 178 17.8
2017-Apr-25 09:47 177 1 gusting 5 17.8
2017-Apr-25 09:42 176 1 gusting 5 17.2
2017-Apr-25 09:37 188 0 gusting 5 17.2
2017-Apr-25 09:32 189 1 gusting 7 17.2
2017-Apr-25 09:27 188 0 gusting 7 17.2
2017-Apr-25 09:22 184 4 gusting 6 17.2
2017-Apr-25 09:17 192 3 gusting 6 17.2
2017-Apr-25 09:12 171 0 gusting 8 17.2
2017-Apr-25 09:07 184 16.7
2017-Apr-25 09:02 195 1 gusting 6 16.7
2017-Apr-25 08:55 183 1 gusting 6 16.7
2017-Apr-25 08:50 160 3 gusting 6 16.1
2017-Apr-25 08:45 156 4 gusting 6 16.1
2017-Apr-25 08:40 156 4 gusting 6 16.1
2017-Apr-25 08:35 157 3 gusting 6 15.6
2017-Apr-25 08:30 152 6 gusting 4 15.6
2017-Apr-25 08:25 156 4 gusting 4 15.6
2017-Apr-25 08:20 157 2 gusting 6 15.6
2017-Apr-25 08:15 157 3 gusting 6 15.6
2017-Apr-25 08:10 158 3 gusting 6 15.6
2017-Apr-25 08:05 154 4 gusting 6 15.0
2017-Apr-25 08:00 163 3 gusting 6 15.0
2017-Apr-25 07:55 163 3 gusting 6 15.0
2017-Apr-25 07:50 142 4 gusting 7 15.0
2017-Apr-25 07:45 155 3 gusting 7 15.0
2017-Apr-25 07:40 170 3 gusting 7 15.0
2017-Apr-25 07:35 161 5 gusting 7 15.0
2017-Apr-25 07:30 162 5 gusting 7 15.0
2017-Apr-25 07:25 148 5 gusting 7 15.0
2017-Apr-25 07:20 166 4 gusting 7 15.0
2017-Apr-25 07:15 150 6 gusting 7 15.0
2017-Apr-25 07:10 156 4 gusting 8 15.0
2017-Apr-25 07:05 150 5 gusting 8 15.0
2017-Apr-25 07:00 140 6 gusting 9 15.0
2017-Apr-25 06:55 130 6 gusting 9 15.0
2017-Apr-25 06:50 147 5 gusting 9 15.0
2017-Apr-25 06:45 142 3 gusting 9 14.4
2017-Apr-25 06:40 151 5 gusting 10 14.4
2017-Apr-25 06:35 160 5 gusting 10 14.4
2017-Apr-25 06:30 140 6 gusting 6 14.4
2017-Apr-25 06:25 144 5 gusting 6 14.4
2017-Apr-25 06:20 131 5 gusting 7 14.4
2017-Apr-25 06:15 127 6 gusting 7 13.9
2017-Apr-25 06:10 141 5 gusting 7 13.9
2017-Apr-25 06:05 140 3 gusting 7 13.3
2017-Apr-25 06:00 122 4 gusting 3 13.3
2017-Apr-25 05:55 125 1 gusting 3 13.3
2017-Apr-25 05:50 125 2 12.8
2017-Apr-25 05:45 125 12.8
2017-Apr-25 05:40 125 12.2
2017-Apr-25 05:35 125 11.7
2017-Apr-25 05:30 125 11.7
2017-Apr-25 05:25 125 11.7
2017-Apr-25 05:20 125 11.7
2017-Apr-25 05:15 125 11.1
2017-Apr-25 05:10 125 11.1
2017-Apr-25 05:05 125 11.1
2017-Apr-25 05:00 125 11.1
2017-Apr-25 04:55 125 11.1
2017-Apr-25 04:50 125 0 gusting 1 11.1
2017-Apr-25 04:45 125 0 gusting 1 11.1
2017-Apr-25 04:40 125 11.1
2017-Apr-25 04:35 125 11.7
2017-Apr-25 04:30 125 11.7
2017-Apr-25 04:25 125 11.7
2017-Apr-25 04:20 125 3 gusting 5 11.7
2017-Apr-25 04:15 125 1 gusting 5 11.7
2017-Apr-25 04:10 130 2 gusting 5 11.1
2017-Apr-25 04:05 132 4 gusting 5 11.1
2017-Apr-25 04:00 134 3 gusting 4 11.1
2017-Apr-25 03:55 150 2 gusting 4 11.1
2017-Apr-25 03:50 153 2 11.1
2017-Apr-25 03:45 154 11.1
2017-Apr-25 03:40 154 11.1
2017-Apr-25 03:35 154 11.1
2017-Apr-25 03:30 154 11.1
2017-Apr-25 03:25 154 11.1
2017-Apr-25 03:20 154 11.1
2017-Apr-25 03:15 154 11.1
2017-Apr-25 03:10 154 11.1
2017-Apr-25 03:05 154 2 gusting 4 11.1
2017-Apr-25 03:00 154 2 gusting 2 11.1
2017-Apr-25 02:55 154 2 gusting 2 11.1
2017-Apr-25 02:50 154 1 gusting 3 10.6
2017-Apr-25 02:45 154 10.6
2017-Apr-25 02:40 154 0 10.6
2017-Apr-25 02:35 154 0 10.6
2017-Apr-25 02:30 154 10.6
2017-Apr-25 02:25 154 10.6
2017-Apr-25 02:20 154 10.6
2017-Apr-25 02:15 154 10.6
2017-Apr-25 02:10 154 10.6
2017-Apr-25 02:05 154 10.6
2017-Apr-25 02:00 154 10.6
2017-Apr-25 01:55 154 10.6
2017-Apr-25 01:50 154 10.6
2017-Apr-25 01:45 154 10.6
2017-Apr-25 01:40 154 10.6
2017-Apr-25 01:35 154 10.6
2017-Apr-25 01:30 154 10.6
2017-Apr-25 01:25 154 10.6
2017-Apr-25 01:20 154 10.6
2017-Apr-25 01:15 154 10.0
2017-Apr-25 01:10 154 10.0
2017-Apr-25 01:05 154 10.0
2017-Apr-25 01:00 154 10.0
2017-Apr-25 00:55 154 10.0
2017-Apr-25 00:50 154 10.0
2017-Apr-25 00:45 154 10.0
2017-Apr-25 00:40 154 0 gusting 2 10.0
2017-Apr-25 00:35 154 1 gusting 2 10.0
2017-Apr-25 00:30 154 2 gusting 3 10.0
2017-Apr-25 00:25 154 2 gusting 3 10.0
2017-Apr-25 00:20 154 1 10.0
2017-Apr-25 00:15 154 10.0
2017-Apr-25 00:10 154 10.0
2017-Apr-25 00:05 154 10.0
2017-Apr-25 00:00 154 10.0
2017-Apr-24 23:55 154 10.0
2017-Apr-24 23:50 154 10.0
2017-Apr-24 23:45 154 10.0
2017-Apr-24 23:40 154 1 gusting 4 10.6
2017-Apr-24 23:35 154 1 gusting 4 10.6
2017-Apr-24 23:30 154 2 gusting 5 10.6
2017-Apr-24 23:25 154 4 gusting 5 10.6
2017-Apr-24 23:20 155 4 gusting 4 10.6
2017-Apr-24 23:15 155 3 gusting 4 10.6
2017-Apr-24 23:10 156 2 gusting 4 11.1
2017-Apr-24 23:05 156 2 gusting 4 11.1
2017-Apr-24 23:00 156 1 gusting 6 11.1
2017-Apr-24 22:55 156 1 gusting 6 11.1
2017-Apr-24 22:50 155 3 gusting 5 11.1
2017-Apr-24 22:45 155 2 gusting 5 11.1
2017-Apr-24 22:40 207 4 11.1
2017-Apr-24 22:35 261 11.1
2017-Apr-24 22:30 261 11.1
2017-Apr-24 22:25 261 11.1
2017-Apr-24 22:20 264 11.1
2017-Apr-24 22:15 264 11.1
2017-Apr-24 22:10 264 11.1
2017-Apr-24 22:05 264 11.1
2017-Apr-24 22:00 264 11.7
2017-Apr-24 21:55 264 11.7
2017-Apr-24 21:50 264 11.7
2017-Apr-24 21:45 264 11.7
2017-Apr-24 21:40 264 11.7
2017-Apr-24 21:35 264 11.7
2017-Apr-24 21:30 264 12.2
2017-Apr-24 21:25 264 12.2
2017-Apr-24 21:20 264 12.2
2017-Apr-24 21:15 264 12.2
2017-Apr-24 21:10 264 12.2
2017-Apr-24 21:05 264 12.2
2017-Apr-24 21:00 264 12.8
2017-Apr-24 20:55 264 12.8
2017-Apr-24 20:50 264 12.8
2017-Apr-24 20:45 264 12.8
2017-Apr-24 20:40 264 13.3
2017-Apr-24 20:35 264 13.3
2017-Apr-24 20:30 264 13.9
2017-Apr-24 20:25 264 13.9
2017-Apr-24 20:20 265 14.4
2017-Apr-24 20:15 265 14.4
2017-Apr-24 20:10 265 14.4
2017-Apr-24 20:05 265 1 gusting 2 14.4
2017-Apr-24 20:00 265 14.4
2017-Apr-24 19:55 265 2 gusting 2 14.4
2017-Apr-24 19:50 265 1 gusting 2 14.4
2017-Apr-24 19:45 265 15.0
2017-Apr-24 19:40 265 15.0
2017-Apr-24 19:35 265 15.0
2017-Apr-24 19:30 265 0 gusting 2 15.0
2017-Apr-24 19:25 265 1 gusting 2 15.0
2017-Apr-24 19:20 265 2 gusting 3 15.0
2017-Apr-24 19:15 265 15.0
2017-Apr-24 19:10 265 0 gusting 4 15.6
2017-Apr-24 19:05 265 2 gusting 4 15.6
2017-Apr-24 19:00 265 15.6